Weather History for Vicksburg, MS

Change the Weather History Date:

Thursday, September 11, 2014

  Actual Average Record
Temperature  
Mean Temperature 84 °F 77 °F  
Max Temperature 95 °F 88 °F 99 °F (1980)
Min Temperature 73 °F 65 °F 47 °F (1956)
Degree Days  
Heating Degree Days 0 0  
Month to date heating degree days 0 0  
Since 1 July heating degree days 0 0  
Cooling Degree Days 19 11  
Month to date cooling degree days 186 139  
Year to date cooling degree days 1844 1928  
Growing Degree Days 33 (Base 50)    
Moisture  
Dew Point 72 °F    
Average Humidity 68    
Maximum Humidity 94    
Minimum Humidity 41    
Precipitation  
Precipitation 0.00 in 0.11 in 1.42 in (1990)
Month to date precipitation 0.98 1.33  
Year to date precipitation 45.22 37.90  
Sea Level Pressure  
Sea Level Pressure 29.98 in    
Wind  
Wind Speed 3 mph (SSE)    
Max Wind Speed 9 mph    
Max Gust Speed 13 mph    
Visibility 10 miles    
Events      
T = Trace of Precipitation, MM = Missing Value Source: NWS Daily Summary

Daily Weather History Graph

Daily Weather History Graph

Search for Another Location

Airport:

Trip Planner

Search our weather history database for the weather conditions in past years. The results will help you decide how hot, cold, wet, or windy it might be!

Date:

Astronomy

Sep. 11, 2014 Rise Set
Actual Time 6:45 AM CDT 7:15 PM CDT
Civil Twilight 6:20 AM CDT 7:40 PM CDT
Nautical Twilight 5:51 AM CDT 8:08 PM CDT
Astronomical Twilight 5:22 AM CDT 8:38 PM CDT
Moon 9:07 PM CDT (9/11) 9:30 AM CDT (9/11)
Length of Visible Light 13h 19m
Length of Day
12h 30m
Waning Gibbous, 90% of the Moon is Illuminated
Sep 11
Waning Gibbous
Sep 15
Last Quarter
Sep 24
New
Oct 1
First Quarter
Oct 8
Full

Hourly Weather History & Observations

Time (CDT) Temp. Heat Index Dew Point Humidity Pressure Visibility Wind Dir Wind Speed Gust Speed Precip Events Conditions
12:53 AM 77.0 °F - 73.0 °F 88% 29.96 in 10.0 mi SSE 6.9 mph - N/A   Clear
1:53 AM 77.0 °F - 73.0 °F 88% 29.96 in 10.0 mi South 5.8 mph - N/A   Clear
2:53 AM 77.0 °F - 73.0 °F 88% 29.95 in 10.0 mi South 5.8 mph - N/A   Clear
3:53 AM 73.9 °F - 72.0 °F 93% 29.95 in 10.0 mi SSE 4.6 mph - N/A   Clear
4:53 AM 75.0 °F - 73.0 °F 94% 29.96 in 10.0 mi Calm Calm - N/A   Clear
5:53 AM 73.0 °F - 71.1 °F 93% 29.97 in 10.0 mi SSE 3.5 mph - N/A   Clear
6:53 AM 73.0 °F - 72.0 °F 96% 29.99 in 10.0 mi Calm Calm - N/A   Clear
7:53 AM 77.0 °F - 75.0 °F 94% 30.00 in 10.0 mi Calm Calm - N/A   Clear
8:53 AM 82.0 °F 88.6 °F 75.0 °F 79% 30.00 in 10.0 mi Variable 5.8 mph - N/A   Clear
9:53 AM 84.9 °F 93.3 °F 75.0 °F 72% 30.02 in 10.0 mi North - - N/A   Partly Cloudy
10:53 AM 87.1 °F 94.5 °F 73.0 °F 63% 30.03 in 10.0 mi SW 5.8 mph - N/A   Clear
11:53 AM 90.0 °F 96.9 °F 72.0 °F 55% 30.03 in 10.0 mi Calm Calm - N/A   Partly Cloudy
12:53 PM 91.9 °F 99.5 °F 72.0 °F 52% 30.01 in 10.0 mi Variable 5.8 mph - N/A   Clear
1:53 PM 91.0 °F 96.6 °F 70.0 °F 50% 29.99 in 10.0 mi Calm Calm - N/A   Clear
2:53 PM 93.9 °F 99.1 °F 69.1 °F 44% 29.96 in 10.0 mi Variable 3.5 mph - N/A   Clear
3:53 PM 93.9 °F 97.5 °F 66.9 °F 41% 29.94 in 10.0 mi South 4.6 mph - N/A   Clear
4:53 PM 93.0 °F 99.0 °F 70.0 °F 47% 29.92 in 10.0 mi East 5.8 mph - N/A   Partly Cloudy
5:53 PM 93.0 °F 100.1 °F 71.1 °F 49% 29.93 in 10.0 mi SSE 8.1 mph - N/A   Clear
6:53 PM 86.0 °F 92.2 °F 72.0 °F 63% 29.94 in 10.0 mi SSE 5.8 mph - N/A   Clear
7:53 PM 80.1 °F 84.2 °F 73.0 °F 79% 29.95 in 10.0 mi Calm Calm - N/A   Clear
8:53 PM 79.0 °F - 73.9 °F 84% 29.98 in 10.0 mi Calm Calm - N/A   Clear
9:53 PM 78.1 °F - 73.9 °F 87% 29.99 in 10.0 mi SSE 4.6 mph - N/A   Clear
10:53 PM 78.1 °F - 73.9 °F 87% 30.01 in 10.0 mi SSE 5.8 mph - N/A   Clear
11:53 PM 77.0 °F - 73.9 °F 90% 30.01 in 10.0 mi NW 3.5 mph - N/A   Clear